00:00:03,7B6617E0,0,0,47,0,0,144
00:00:35,7B661BE0,0,0,47,0,0,142
00:01:07,7B661FE0,0,0,47,0,0,141
00:01:39,7B6623E0,0,0,47,0,0,141
00:02:11,7B6627E0,0,0,47,0,0,142
00:02:43,7B662BE0,0,0,47,0,0,143
00:03:47,7B6633E0,0,0,47,0,0,144
00:04:19,7B6637E0,0,0,47,0,0,145
00:04:51,7B663BE0,0,0,47,0,0,145
00:05:23,7B663FE0,0,0,47,0,0,146
00:05:55,7B6643E0,0,0,47,0,0,145
00:06:27,7B6647E0,0,0,47,0,0,143
00:06:59,7B664BE0,0,0,47,0,0,142
00:08:03,7B6653E0,0,0,47,0,0,141
00:08:35,7B6657E0,0,0,47,0,0,142
00:09:07,7B665BE0,0,0,47,0,0,143
00:09:39,7B665FE0,0,0,47,0,0,143
00:10:11,7B6663E0,0,0,47,0,0,144
00:10:43,7B6667E0,0,0,47,0,0,145
00:11:15,7B666BE0,0,0,47,0,0,145
00:12:19,7B6673E0,0,0,47,0,0,145
00:12:51,7B6677E0,0,0,47,0,0,144
00:13:23,7B667BE0,0,0,47,0,0,142
00:13:55,7B667FE0,0,0,47,0,0,141
00:14:27,7B6683E0,0,0,47,0,0,141
00:14:59,7B6687E0,0,0,47,0,0,142
00:15:31,7B668BE0,0,0,47,0,0,142
00:16:35,7B6693E0,0,0,47,0,0,144
00:17:07,7B6697E0,0,0,47,0,0,144
00:17:39,7B669BE0,0,0,47,0,0,145
00:18:11,7B669FE0,0,0,47,0,0,146
00:18:43,7B66A3E0,0,0,47,0,0,146
00:19:15,7B66A7E0,0,0,47,0,0,144
00:19:47,7B66ABE0,0,0,47,0,0,143
00:20:51,7B66B3E0,0,0,47,0,0,141
00:21:23,7B66B7E0,0,0,47,0,0,141
00:21:55,7B66BBE0,0,0,47,0,0,142
00:22:27,7B66BFE0,0,0,47,0,0,143
00:22:59,7B66C3E0,0,0,47,0,0,144
00:23:31,7B66C7E0,0,0,47,0,0,144
00:24:03,7B66CBE0,0,0,47,0,0,145
00:25:07,7B66D3E0,0,0,47,0,0,146
00:25:39,7B66D7E0,0,0,47,0,0,145
00:26:11,7B66DBE0,0,0,47,0,0,143
00:26:43,7B66DFE0,0,0,47,0,0,142
00:27:15,7B66E3E0,0,0,47,0,0,141
00:27:47,7B66E7E0,0,0,47,0,0,141
00:28:19,7B66EBE0,0,0,47,0,0,142
00:29:23,7B66F3E0,0,0,47,0,0,144
00:29:55,7B66F7E0,0,0,47,0,0,144
00:30:27,7B66FBE0,0,0,47,0,0,145
00:30:59,7B66FFE0,0,0,47,0,0,145
00:31:31,7B6703E0,0,0,47,0,0,146
00:32:03,7B6707E0,0,0,47,0,0,145
00:32:35,7B670BE0,0,0,47,0,0,143
00:33:39,7B6713E0,0,0,47,0,0,141
00:34:11,7B6717E0,0,0,47,0,0,141
00:34:43,7B671BE0,0,0,47,0,0,142
00:35:15,7B671FE0,0,0,47,0,0,143
00:35:47,7B6723E0,0,0,47,0,0,143
00:36:19,7B6727E0,0,0,47,0,0,144
00:36:51,7B672BE0,0,0,47,0,0,145
00:37:55,7B6733E0,0,0,47,0,0,146
00:38:27,7B6737E0,0,0,47,0,0,145
00:38:59,7B673BE0,0,0,47,0,0,144
00:39:31,7B673FE0,0,0,47,0,0,142
00:40:03,7B6743E0,0,0,47,0,0,141
00:40:35,7B6747E0,0,0,47,0,0,141
00:41:07,7B674BE0,0,0,47,0,0,142
00:42:11,7B6753E0,0,0,47,0,0,144
00:42:43,7B6757E0,0,0,47,0,0,144
00:43:15,7B675BE0,0,0,47,0,0,145
00:43:47,7B675FE0,0,0,47,0,0,145
00:44:19,7B6763E0,0,0,47,0,0,146
00:44:51,7B6767E0,0,0,47,0,0,146
00:45:23,7B676BE0,0,0,47,0,0,144
00:46:27,7B6773E0,0,0,47,0,0,142
00:46:59,7B6777E0,0,0,47,0,0,141
00:47:31,7B677BE0,0,0,47,0,0,141
00:48:03,7B677FE0,0,0,47,0,0,142
00:48:35,7B6783E0,0,0,47,0,0,143
00:49:07,7B6787E0,0,0,47,0,0,144
00:49:39,7B678BE0,0,0,47,0,0,144
00:50:43,7B6793E0,0,0,47,0,0,145
00:51:15,7B6797E0,0,0,47,0,0,146
00:51:47,7B679BE0,0,0,47,0,0,145
00:52:19,7B679FE0,0,0,47,0,0,143
00:52:51,7B67A3E0,0,0,47,0,0,142
00:53:23,7B67A7E0,0,0,47,0,0,141
00:53:55,7B67ABE0,0,0,47,0,0,141
00:54:59,7B67B3E0,0,0,47,0,0,143
00:55:31,7B67B7E0,0,0,47,0,0,143
00:56:03,7B67BBE0,0,0,47,0,0,144
00:56:35,7B67BFE0,0,0,47,0,0,145
00:57:07,7B67C3E0,0,0,47,0,0,145
00:57:39,7B67C7E0,0,0,47,0,0,145
00:58:11,7B67CBE0,0,0,47,0,0,145
00:59:15,7B67D3E0,0,0,47,0,0,142
00:59:47,7B67D7E0,0,0,47,0,0,141
01:00:19,7B67DBE0,0,0,47,0,0,141
01:00:51,7B67DFE0,0,0,47,0,0,142
01:01:23,7B67E3E0,0,0,47,0,0,142
01:01:55,7B67E7E0,0,0,47,0,0,143
01:02:27,7B67EBE0,0,0,47,0,0,144
01:03:31,7B67F3E0,0,0,47,0,0,145
01:04:03,7B67F7E0,0,0,47,0,0,146
01:04:35,7B67FBE0,0,0,47,0,0,145
01:05:07,7B67FFE0,0,0,47,0,0,144
01:05:39,7B6803E0,0,0,47,0,0,143
01:06:11,7B6807E0,0,0,47,0,0,141
01:06:43,7B680BE0,0,0,47,0,0,141
01:07:47,7B6813E0,0,0,47,0,0,142
01:08:19,7B6817E0,0,0,47,0,0,143
01:08:51,7B681BE0,0,0,47,0,0,144
01:09:23,7B681FE0,0,0,47,0,0,145
01:09:55,7B6823E0,0,0,47,0,0,145
01:10:27,7B6827E0,0,0,47,0,0,146
01:10:59,7B682BE0,0,0,47,0,0,146
01:12:03,7B6833E0,0,0,47,0,0,143
01:12:35,7B6837E0,0,0,47,0,0,142
01:13:07,7B683BE0,0,0,47,0,0,141
01:13:39,7B683FE0,0,0,47,0,0,141
01:14:11,7B6843E0,0,0,47,0,0,142
01:14:43,7B6847E0,0,0,47,0,0,143
01:15:15,7B684BE0,0,0,47,0,0,144
01:16:19,7B6853E0,0,0,47,0,0,145
01:16:51,7B6857E0,0,0,47,0,0,145
01:17:23,7B685BE0,0,0,47,0,0,146
01:17:55,7B685FE0,0,0,47,0,0,145
01:18:27,7B6863E0,0,0,47,0,0,143
01:18:59,7B6867E0,0,0,47,0,0,142
01:19:31,7B686BE0,0,0,47,0,0,141
01:20:35,7B6873E0,0,0,47,0,0,142
01:21:07,7B6877E0,0,0,47,0,0,143
01:21:39,7B687BE0,0,0,47,0,0,144
01:22:11,7B687FE0,0,0,47,0,0,144
01:22:43,7B6883E0,0,0,47,0,0,145
01:23:15,7B6887E0,0,0,47,0,0,145
01:23:47,7B688BE0,0,0,47,0,0,146
01:24:51,7B6893E0,0,0,47,0,0,144
01:25:23,7B6897E0,0,0,47,0,0,142
01:25:55,7B689BE0,0,0,47,0,0,141
01:26:27,7B689FE0,0,0,47,0,0,141
01:26:59,7B68A3E0,0,0,47,0,0,142
01:27:31,7B68A7E0,0,0,47,0,0,143
01:28:03,7B68ABE0,0,0,47,0,0,144
01:29:07,7B68B3E0,0,0,47,0,0,145
01:29:39,7B68B7E0,0,0,47,0,0,145
01:30:11,7B68BBE0,0,0,47,0,0,146
01:30:43,7B68BFE0,0,0,47,0,0,145
01:31:15,7B68C3E0,0,0,46,0,0,143
01:31:47,7B68C7E0,0,0,50,0,0,142
01:32:19,7B68CBE0,0,0,53,1,0,141
01:33:23,7B68D3E0,0,0,49,0,0,141
01:33:55,7B68D7E0,0,0,53,0,0,143
01:34:27,7B68DBE0,0,0,55,0,0,143
01:34:59,7B68DFE0,0,0,47,0,0,144
01:35:31,7B68E3E0,0,0,47,0,0,145
01:36:03,7B68E7E0,0,0,52,0,0,145
01:36:35,7B68EBE0,0,0,53,0,0,146
01:37:39,7B68F3E0,0,0,53,0,0,144
01:38:11,7B68F7E0,0,0,54,0,0,143
01:38:43,7B68FBE0,0,0,49,0,0,141
01:39:15,7B68FFE0,0,0,54,0,0,141
01:39:47,7B6903E0,0,0,52,0,0,142
01:40:19,7B6907E0,0,0,55,0,0,142
01:40:51,7B690BE0,0,0,46,0,0,143
01:41:55,7B6913E0,0,0,53,0,0,145
01:42:27,7B6917E0,0,0,53,0,0,145
01:42:59,7B691BE0,0,0,48,0,0,146
01:43:31,7B691FE0,0,0,52,0,0,145
01:44:03,7B6923E0,0,0,55,0,0,144
01:44:35,7B6927E0,0,0,48,0,1,143
01:45:07,7B692BE0,0,0,51,0,0,142
01:46:11,7B6933E0,0,0,47,0,0,141
01:46:43,7B6937E0,0,0,46,0,0,142
01:47:15,7B693BE0,0,0,51,0,0,143
01:47:47,7B693FE0,0,0,53,0,0,144
01:48:19,7B6943E0,0,0,49,0,0,145
01:48:51,7B6947E0,0,0,49,0,0,145
01:49:23,7B694BE0,0,0,46,0,0,146
01:50:27,7B6953E0,0,0,49,0,0,144
01:50:59,7B6957E0,0,0,47,0,0,143
01:51:31,7B695BE0,0,0,55,0,0,142
01:52:03,7B695FE0,0,0,52,0,0,141
01:52:35,7B6963E0,0,0,53,0,0,142
01:53:07,7B6967E0,0,0,47,0,0,143
01:53:39,7B696BE0,0,0,50,0,0,143
01:54:43,7B6973E0,0,0,54,0,0,145
01:55:15,7B6977E0,0,0,51,0,0,145
01:55:47,7B697BE0,0,0,54,0,0,146
01:56:19,7B697FE0,0,0,47,0,0,145
01:56:51,7B6983E0,0,0,53,0,0,144
01:57:23,7B6987E0,0,0,48,0,0,143
01:57:55,7B698BE0,0,0,47,0,0,141
01:58:59,7B6993E0,0,0,48,0,0,142
01:59:31,7B6997E0,0,0,49,0,0,143
02:00:03,7B699BE0,0,0,55,0,0,144
02:00:35,7B699FE0,0,0,48,0,0,144
02:01:07,7B69A3E0,0,0,46,0,0,145
02:01:39,7B69A7E0,0,0,52,0,0,146
02:02:11,7B69ABE0,0,0,54,0,0,146
02:03:15,7B69B3E0,0,0,47,0,0,144
02:03:47,7B69B7E0,0,0,52,0,0,142
02:04:19,7B69BBE0,0,0,56,0,0,141
02:04:51,7B69BFE0,0,0,53,0,0,141
02:05:23,7B69C3E0,0,0,47,0,0,142
02:05:55,7B69C7E0,0,0,56,0,0,143
02:06:27,7B69CBE0,0,0,54,0,0,144
02:07:31,7B69D3E0,0,0,54,0,0,145
02:08:03,7B69D7E0,0,0,49,0,0,146
02:08:35,7B69DBE0,0,0,49,0,0,146
02:09:07,7B69DFE0,0,0,52,0,0,144
02:09:39,7B69E3E0,0,0,55,0,0,143
02:10:11,7B69E7E0,0,0,54,0,0,142
02:10:43,7B69EBE0,0,0,47,0,0,141
02:11:47,7B69F3E0,0,0,52,0,0,142
02:12:19,7B69F7E0,0,0,55,0,0,143
02:12:51,7B69FBE0,0,0,50,0,0,144
02:13:23,7B69FFE0,0,0,53,0,0,144
02:13:55,7B6A03E0,0,0,51,0,0,145
02:14:27,7B6A07E0,0,0,51,0,0,146
02:14:59,7B6A0BE0,0,0,54,0,0,145
02:16:03,7B6A13E0,0,0,51,0,0,143
02:16:35,7B6A17E0,0,0,54,0,0,142
02:17:07,7B6A1BE0,0,0,48,0,0,141
02:17:39,7B6A1FE0,0,0,48,0,0,141
02:18:11,7B6A23E0,0,0,50,0,0,143
02:18:43,7B6A27E0,0,0,46,0,0,144
02:19:15,7B6A2BE0,0,0,49,0,0,144
02:20:19,7B6A33E0,0,0,50,0,0,146
02:20:51,7B6A37E0,0,0,52,0,0,146
02:21:23,7B6A3BE0,0,0,51,0,0,145
02:21:55,7B6A3FE0,0,0,54,0,0,143
02:22:27,7B6A43E0,0,0,55,0,0,142
02:22:59,7B6A47E0,0,0,54,0,0,141
02:23:31,7B6A4BE0,0,0,49,0,0,141
02:24:35,7B6A53E0,0,0,48,0,0,143
02:25:07,7B6A57E0,0,0,52,0,0,144
02:25:39,7B6A5BE0,0,0,55,0,0,144
02:26:11,7B6A5FE0,0,0,50,0,0,145
02:26:43,7B6A63E0,0,0,53,0,1,146
02:27:15,7B6A67E0,0,0,56,0,0,146
02:27:47,7B6A6BE0,0,0,55,0,0,144
02:28:51,7B6A73E0,0,0,54,0,0,142
02:29:23,7B6A77E0,0,0,52,0,0,141
02:29:55,7B6A7BE0,0,0,52,0,0,141
02:30:27,7B6A7FE0,0,0,53,0,0,142
02:30:59,7B6A83E0,0,0,55,0,0,143
02:31:31,7B6A87E0,0,0,52,1,0,144
02:32:03,7B6A8BE0,0,0,47,0,0,145
02:33:07,7B6A93E0,0,0,51,0,0,146
02:33:39,7B6A97E0,0,0,53,0,0,145
02:34:11,7B6A9BE0,0,0,47,0,0,144
02:34:43,7B6A9FE0,0,0,52,0,0,142
02:35:15,7B6AA3E0,0,0,48,0,0,141
02:35:47,7B6AA7E0,0,0,51,0,0,141
02:36:19,7B6AABE0,0,0,53,0,0,142
02:37:23,7B6AB3E0,0,0,53,0,0,143
02:37:55,7B6AB7E0,0,0,51,0,0,144
02:38:27,7B6ABBE0,0,0,54,0,0,145
02:38:59,7B6ABFE0,0,0,52,0,0,145
02:39:31,7B6AC3E0,0,0,50,0,0,146
02:40:03,7B6AC7E0,0,0,52,0,0,145
02:40:35,7B6ACBE0,0,0,50,0,0,144
02:41:39,7B6AD3E0,0,0,54,0,0,141
02:42:11,7B6AD7E0,0,0,52,0,0,141
02:42:43,7B6ADBE0,0,0,50,0,0,142
02:43:15,7B6ADFE0,0,0,49,0,0,143
02:43:47,7B6AE3E0,0,0,49,0,0,144
02:44:19,7B6AE7E0,0,0,52,0,0,145
02:44:51,7B6AEBE0,0,0,53,0,0,145
02:45:55,7B6AF3E0,0,0,49,0,0,145
02:46:27,7B6AF7E0,0,0,48,0,0,144
02:46:59,7B6AFBE0,0,0,53,0,0,143
02:47:31,7B6AFFE0,0,0,51,0,0,142
02:48:03,7B6B03E0,0,0,51,0,0,141
02:48:35,7B6B07E0,0,0,54,0,0,141
02:49:07,7B6B0BE0,0,0,51,0,0,142
02:50:11,7B6B13E0,0,0,51,0,0,144
02:50:43,7B6B17E0,0,0,55,0,0,144
02:51:15,7B6B1BE0,0,0,52,0,0,145
02:51:47,7B6B1FE0,0,0,47,0,0,146
02:52:19,7B6B23E0,0,0,52,0,0,145
02:52:51,7B6B27E0,0,0,46,0,0,144
02:53:23,7B6B2BE0,0,0,49,0,0,143
02:54:27,7B6B33E0,0,0,55,0,0,141
02:54:59,7B6B37E0,0,0,50,0,0,141
02:55:31,7B6B3BE0,0,0,52,0,0,143
02:56:03,7B6B3FE0,0,0,51,0,0,143
02:56:35,7B6B43E0,0,0,47,0,0,144
02:57:07,7B6B47E0,0,0,46,0,0,145
02:57:39,7B6B4BE0,0,0,55,0,0,145
02:58:43,7B6B53E0,0,0,49,0,0,145
02:59:15,7B6B57E0,0,0,51,0,0,144
02:59:47,7B6B5BE0,0,0,48,0,0,143
03:00:19,7B6B5FE0,0,0,55,0,0,141
03:00:51,7B6B63E0,0,0,53,0,0,141
03:01:23,7B6B67E0,0,0,54,0,0,142
03:02:59,7B6B73E0,0,0,54,0,0,144
03:03:31,7B6B77E0,0,0,51,0,0,145
03:04:03,7B6B7BE0,0,0,49,0,0,146
03:04:35,7B6B7FE0,0,0,46,0,0,146
03:05:07,7B6B83E0,0,0,47,0,0,145
03:05:39,7B6B87E0,0,0,50,0,0,143
03:06:11,7B6B8BE0,0,0,53,0,0,142
03:07:15,7B6B93E0,0,0,48,0,0,141
03:07:47,7B6B97E0,0,0,51,0,0,142
03:08:19,7B6B9BE0,0,0,53,0,0,143
03:08:51,7B6B9FE0,0,0,50,1,0,144
03:09:23,7B6BA3E0,0,0,47,0,0,145
03:09:55,7B6BA7E0,0,0,52,0,0,145
03:10:11,7B6BA9E0,0,0,48,0,0,146
03:10:43,7B6BADE0,0,0,52,0,0,146
03:11:15,7B6BB1E0,0,0,50,0,0,145
03:11:47,7B6BB5E0,0,0,49,0,0,143
03:12:03,7B6BB7E0,0,0,54,0,0,143
03:12:19,7B6BB9E0,0,0,56,0,0,142
03:12:51,7B6BBDE0,0,0,48,0,0,141
03:13:07,7B6BBFE0,0,0,51,0,0,141
03:13:23,7B6BC1E0,0,0,52,0,0,141
03:13:55,7B6BC5E0,0,0,53,0,0,142
03:14:11,7B6BC7E0,0,0,56,0,0,142
03:14:27,7B6BC9E0,0,0,47,0,0,143
03:14:59,7B6BCDE0,0,0,47,0,0,144
03:16:19,7B6BD7E0,0,0,49,0,0,146
03:17:23,7B6BDFE0,0,0,54,0,0,145
03:18:27,7B6BE7E0,0,0,48,0,0,142
03:20:35,7B6BF7E0,0,0,51,0,0,143
03:21:39,7B6BFFE0,0,0,50,0,0,145
03:22:43,7B6C07E0,0,0,55,0,0,146
03:24:51,7B6C17E0,0,0,52,0,0,141
03:25:55,7B6C1FE0,0,0,48,0,0,142
03:26:59,7B6C27E0,0,0,54,0,0,144
03:29:07,7B6C37E0,0,0,50,0,0,146
03:30:11,7B6C3FE0,0,0,48,0,0,143
03:31:15,7B6C47E0,0,0,48,0,0,141
03:33:23,7B6C57E0,0,0,49,0,0,144
03:34:27,7B6C5FE0,0,0,51,0,0,146
03:35:31,7B6C67E0,0,0,53,0,0,144
03:37:39,7B6C77E0,0,0,52,0,0,141
03:38:43,7B6C7FE0,0,0,51,0,0,143
03:39:47,7B6C87E0,0,0,46,0,0,145
03:41:55,7B6C97E0,0,0,52,1,0,144
03:42:59,7B6C9FE0,0,0,54,0,0,141
03:44:03,7B6CA7E0,0,0,46,0,0,142
03:44:51,7B6CADE0,0,0,49,0,0,143
03:45:23,7B6CB1E0,0,0,51,0,0,144
03:45:55,7B6CB5E0,0,0,51,0,0,145
03:46:11,7B6CB7E0,0,0,50,0,0,145
03:46:27,7B6CB9E0,0,0,51,0,0,146
03:46:59,7B6CBDE0,0,0,55,0,0,146
03:47:15,7B6CBFE0,0,0,47,0,0,145
03:47:31,7B6CC1E0,0,0,47,0,0,144
03:48:03,7B6CC5E0,0,0,48,0,0,143
03:48:19,7B6CC7E0,0,0,48,0,0,143
03:48:35,7B6CC9E0,0,0,10917,0,0,142
03:49:07,7B6CCDE0,0,0,49,0,0,141
03:49:39,7B6CD1E0,0,0,49,0,0,141
03:50:11,7B6CD5E0,0,0,54,1,0,142
03:50:27,7B6CD7E0,0,0,50,1,1,143
03:50:43,7B6CD9E0,0,0,49,0,0,143
03:51:15,7B6CDDE0,0,0,50,0,0,144
03:51:31,7B6CDFE0,0,0,55,0,0,144
03:51:47,7B6CE1E0,0,0,51,0,0,145
03:52:19,7B6CE5E0,0,0,48,0,0,146
03:52:35,7B6CE7E0,0,0,20171,0,0,146
03:52:51,7B6CE9E0,0,0,51,0,0,146
03:53:23,7B6CEDE0,0,0,49,0,0,145
03:53:55,7B6CF1E0,0,0,52,0,0,144
03:54:27,7B6CF5E0,0,0,56,0,0,142
03:54:43,7B6CF7E0,0,0,54,0,0,142
03:54:59,7B6CF9E0,0,0,53,0,0,141
03:55:31,7B6CFDE0,0,0,49,0,0,141
03:55:47,7B6CFFE0,0,0,47,0,0,142
03:56:03,7B6D01E0,0,0,20167,0,0,142
03:56:35,7B6D05E0,0,0,20163,2,0,143
03:56:51,7B6D07E0,0,0,48,0,0,143
03:57:07,7B6D09E0,0,0,20162,2,0,144
03:57:39,7B6D0DE0,0,0,51,0,0,145
03:58:11,7B6D11E0,0,0,48,0,0,145
03:58:43,7B6D15E0,0,0,20167,0,0,146
03:58:59,7B6D17E0,0,0,51,0,0,146
03:59:15,7B6D19E0,0,0,20173,0,0,145
03:59:47,7B6D1DE0,0,0,20173,0,0,144
04:00:03,7B6D1FE0,0,0,20159,1,0,143
04:00:19,7B6D21E0,0,0,20179,0,0,143
04:00:51,7B6D25E0,0,0,20178,0,0,142
04:01:07,7B6D27E0,0,0,48,0,0,141
04:01:23,7B6D29E0,0,0,55,0,0,141
04:01:55,7B6D2DE0,0,0,20162,0,0,142
04:02:27,7B6D31E0,0,0,20172,0,0,143
04:02:59,7B6D35E0,0,0,50,0,0,144
04:03:15,7B6D37E0,0,0,53,0,0,144
04:03:31,7B6D39E0,0,0,20159,0,0,144
04:04:03,7B6D3DE0,0,0,49,0,0,145
04:04:19,7B6D3FE0,0,0,20161,0,0,146
04:04:35,7B6D41E0,0,0,20161,1,0,146
04:05:07,7B6D45E0,0,0,20154,2,0,146
04:05:23,7B6D47E0,0,0,54,0,0,145
04:05:39,7B6D49E0,0,0,54,0,0,144
04:06:11,7B6D4DE0,0,0,47,0,0,143
04:06:43,7B6D51E0,0,0,20162,0,0,142
04:07:15,7B6D55E0,0,0,46,0,0,141
04:07:31,7B6D57E0,0,0,52,0,0,141
04:07:47,7B6D59E0,0,0,52,0,0,142
04:08:19,7B6D5DE0,0,0,48,0,0,142
04:08:35,7B6D5FE0,0,0,20149,0,0,143
04:08:51,7B6D61E0,0,0,51,0,0,144
04:09:23,7B6D65E0,0,0,49,0,0,144
04:09:39,7B6D67E0,0,0,20154,1,0,145
04:09:55,7B6D69E0,0,0,55,0,0,145
04:10:27,7B6D6DE0,0,0,20159,0,0,146
04:10:59,7B6D71E0,0,0,55,0,0,145
04:11:31,7B6D75E0,0,0,49,1,0,144
04:11:47,7B6D77E0,0,0,46,0,0,144
04:12:03,7B6D79E0,0,0,20161,0,0,143
04:12:35,7B6D7DE0,0,0,20148,0,0,142
04:12:51,7B6D7FE0,0,0,20148,2,0,141
04:13:07,7B6D81E0,0,0,20151,1,0,141
04:13:39,7B6D85E0,0,0,20150,1,0,141
04:13:55,7B6D87E0,0,0,20155,0,0,141
04:14:11,7B6D89E0,0,0,20150,2,0,142
04:14:43,7B6D8DE0,0,0,20160,0,0,143
04:15:15,7B6D91E0,0,0,20163,0,0,144
04:15:47,7B6D95E0,0,0,52,0,0,145
04:16:03,7B6D97E0,0,0,20152,3,0,145
04:16:19,7B6D99E0,0,0,20170,1,0,145
04:16:51,7B6D9DE0,0,0,54,0,0,146
04:17:07,7B6D9FE0,0,0,52,0,0,146
04:17:23,7B6DA1E0,0,0,20175,1,0,145
04:17:55,7B6DA5E0,0,0,55,0,0,144
04:18:11,7B6DA7E0,0,0,55,0,0,143
04:18:27,7B6DA9E0,0,0,49,0,0,143
04:18:59,7B6DADE0,0,0,20152,1,0,142
04:19:31,7B6DB1E0,0,0,52,0,0,141
04:20:03,7B6DB5E0,0,0,52,0,0,142
04:20:19,7B6DB7E0,0,0,50,0,0,142
04:20:35,7B6DB9E0,0,0,52,0,0,143
04:21:07,7B6DBDE0,0,0,49,0,0,144
04:21:23,7B6DBFE0,0,0,48,0,0,144
04:21:39,7B6DC1E0,0,0,20166,0,0,145
04:22:11,7B6DC5E0,0,0,52,0,0,145
04:22:27,7B6DC7E0,0,0,46,0,0,145
04:22:43,7B6DC9E0,0,0,20142,1,0,146
04:23:15,7B6DCDE0,0,0,46,0,0,146
04:23:47,7B6DD1E0,0,0,20147,0,0,145
04:24:19,7B6DD5E0,0,0,20147,1,0,143
04:24:35,7B6DD7E0,0,0,20154,0,0,143
04:24:51,7B6DD9E0,0,0,47,0,0,142
04:25:23,7B6DDDE0,0,0,20146,1,0,141
04:25:39,7B6DDFE0,0,0,52,0,0,141
04:25:55,7B6DE1E0,0,0,20149,0,0,141
04:26:27,7B6DE5E0,0,0,56,1,0,142
04:26:43,7B6DE7E0,0,0,20150,0,0,143
04:26:59,7B6DE9E0,0,0,20142,1,0,143
04:27:31,7B6DEDE0,0,0,55,0,0,144
04:28:03,7B6DF1E0,0,0,20147,1,0,145
04:28:35,7B6DF5E0,0,0,50,0,0,146
04:28:51,7B6DF7E0,0,0,55,0,0,146
04:29:07,7B6DF9E0,0,0,47,0,0,146
04:29:39,7B6DFDE0,0,0,47,0,0,145
04:29:55,7B6DFFE0,0,0,52,0,0,144
04:30:11,7B6E01E0,0,0,47,0,0,143
04:30:43,7B6E05E0,0,0,52,0,0,142
04:30:59,7B6E07E0,0,0,20130,2,0,142
04:31:15,7B6E09E0,0,0,20138,0,0,142
04:31:47,7B6E0DE0,0,0,55,0,0,141
04:32:19,7B6E11E0,0,0,20135,2,0,142
04:32:51,7B6E15E0,0,0,20140,1,0,143
04:33:07,7B6E17E0,0,0,54,0,0,144
04:33:23,7B6E19E0,0,0,54,0,0,144
04:33:55,7B6E1DE0,0,0,20135,4,0,145
04:34:11,7B6E1FE0,0,0,20129,3,0,145
04:34:27,7B6E21E0,0,0,20143,0,0,145
04:34:59,7B6E25E0,0,0,20139,1,0,146
04:35:15,7B6E27E0,0,0,20154,1,0,146
04:35:31,7B6E29E0,0,0,20132,3,0,145
04:36:03,7B6E2DE0,0,0,20132,2,0,144
04:36:35,7B6E31E0,0,0,20132,4,0,143
04:37:07,7B6E35E0,0,0,20135,2,0,142
04:37:23,7B6E37E0,0,0,20136,1,0,141
04:37:39,7B6E39E0,0,0,20140,1,0,141
04:38:11,7B6E3DE0,0,0,20141,0,0,141
04:38:27,7B6E3FE0,0,0,20137,2,0,142
04:38:43,7B6E41E0,0,0,20140,2,0,143
04:39:15,7B6E45E0,0,0,49,0,0,143
04:39:31,7B6E47E0,0,0,20147,0,0,144
04:39:47,7B6E49E0,0,0,20135,2,0,144
04:40:19,7B6E4DE0,0,0,20146,0,0,145
04:40:51,7B6E51E0,0,0,20147,0,0,146
04:41:23,7B6E55E0,0,0,20129,2,0,146
04:41:39,7B6E57E0,0,0,56,0,0,145
04:41:55,7B6E59E0,0,0,20142,0,0,145
04:42:27,7B6E5DE0,0,0,20135,1,0,143
04:42:43,7B6E5FE0,0,0,53,0,0,143
04:42:59,7B6E61E0,0,0,49,0,0,142
04:43:31,7B6E65E0,0,0,54,0,0,141
04:43:47,7B6E67E0,0,0,47,0,0,141
04:44:03,7B6E69E0,0,0,20151,0,0,141
04:44:35,7B6E6DE0,0,0,20131,0,0,142
04:45:07,7B6E71E0,0,0,20128,0,0,143
04:45:39,7B6E75E0,0,0,20132,0,0,144
04:45:55,7B6E77E0,0,0,20129,3,0,144
04:46:11,7B6E79E0,0,0,54,0,0,145
04:46:43,7B6E7DE0,0,0,20128,3,0,145
04:46:59,7B6E7FE0,0,0,20128,2,0,145
04:47:15,7B6E81E0,0,0,20129,4,0,146
04:47:47,7B6E85E0,0,0,20134,0,0,146
04:48:03,7B6E87E0,0,0,20133,0,1,145
04:48:19,7B6E89E0,0,0,20132,1,0,144
04:48:51,7B6E8DE0,0,0,20125,1,0,143
04:49:23,7B6E91E0,0,0,20124,1,0,142
04:49:55,7B6E95E0,0,0,20124,0,0,141
04:50:11,7B6E97E0,0,0,20123,2,0,141
04:50:27,7B6E99E0,0,0,55,0,0,142
04:50:59,7B6E9DE0,0,0,20125,0,0,143
04:51:15,7B6E9FE0,0,0,50,0,0,143
04:51:31,7B6EA1E0,0,0,20121,2,0,143
04:52:03,7B6EA5E0,0,0,20124,0,0,144
04:52:19,7B6EA7E0,0,0,54,0,0,145
04:52:35,7B6EA9E0,0,0,20128,0,0,145
04:53:07,7B6EADE0,0,0,20120,2,0,146
04:53:39,7B6EB1E0,0,0,51,0,0,146
04:54:11,7B6EB5E0,0,0,20122,0,0,144
04:54:27,7B6EB7E0,0,0,20125,0,0,144
04:54:43,7B6EB9E0,0,0,20114,2,0,143
04:55:15,7B6EBDE0,0,0,20115,2,0,142
04:55:31,7B6EBFE0,0,0,20115,1,0,142
04:55:47,7B6EC1E0,0,0,20117,1,0,141
04:56:19,7B6EC5E0,0,0,20120,0,0,141
04:56:35,7B6EC7E0,0,0,20116,3,1,142
04:56:51,7B6EC9E0,0,0,20117,3,0,142
04:57:23,7B6ECDE0,0,0,54,0,0,143
04:57:55,7B6ED1E0,0,0,20115,1,0,144
04:58:27,7B6ED5E0,0,0,20114,3,0,145
04:58:43,7B6ED7E0,0,0,49,1,0,145
04:58:59,7B6ED9E0,0,0,20112,4,0,145
04:59:31,7B6EDDE0,0,0,20114,5,0,146
04:59:47,7B6EDFE0,0,0,20115,3,0,146
05:00:03,7B6EE1E0,0,0,20113,2,0,145
05:00:35,7B6EE5E0,0,0,20116,2,0,144
05:00:51,7B6EE7E0,0,0,20111,3,0,143
05:01:07,7B6EE9E0,0,0,20112,2,0,142
05:01:39,7B6EEDE0,0,0,20112,2,0,142
05:02:11,7B6EF1E0,0,0,20117,0,0,141
05:02:43,7B6EF5E0,0,0,20110,3,0,142
05:02:59,7B6EF7E0,0,0,20109,2,0,142
05:03:15,7B6EF9E0,0,0,20111,1,0,143
05:03:47,7B6EFDE0,0,0,20123,0,0,144
05:04:03,7B6EFFE0,0,0,20112,2,0,144
05:04:19,7B6F01E0,0,0,20111,2,0,145
05:04:51,7B6F05E0,0,0,52,0,0,145
05:05:07,7B6F07E0,0,0,20111,1,0,146
05:05:23,7B6F09E0,0,0,20105,1,0,146
05:05:55,7B6F0DE0,0,0,20107,0,0,146
05:06:27,7B6F11E0,0,0,47,0,0,144
05:06:59,7B6F15E0,0,0,20103,1,0,143
05:07:15,7B6F17E0,0,0,20109,0,0,143
05:07:31,7B6F19E0,0,0,20107,1,0,142
05:08:03,7B6F1DE0,0,0,20104,1,0,141
05:08:19,7B6F1FE0,0,0,56,1,0,141
05:08:35,7B6F21E0,0,0,48,0,0,141
05:09:07,7B6F25E0,0,0,20095,1,0,142
05:09:23,7B6F27E0,0,0,20118,0,0,143
05:09:39,7B6F29E0,0,0,53,0,0,143
05:10:11,7B6F2DE0,0,0,46,0,0,144
05:10:43,7B6F31E0,0,0,20096,0,0,145
05:11:15,7B6F35E0,0,0,20100,1,0,145
05:11:31,7B6F37E0,0,0,20101,1,0,146
05:11:47,7B6F39E0,0,0,20101,1,0,146
05:12:19,7B6F3DE0,0,0,20102,0,0,145
05:12:35,7B6F3FE0,0,0,53,0,0,145
05:12:51,7B6F41E0,0,0,54,0,0,144
05:13:23,7B6F45E0,0,0,51,0,0,142
05:13:39,7B6F47E0,0,0,52,0,0,142
05:13:55,7B6F49E0,0,0,49,0,0,142
05:14:27,7B6F4DE0,0,0,20090,1,0,141
05:14:59,7B6F51E0,0,0,54,0,0,142
05:15:31,7B6F55E0,0,0,20093,0,0,143
05:15:47,7B6F57E0,0,0,20080,1,0,143
05:16:03,7B6F59E0,0,0,47,0,0,144
05:16:35,7B6F5DE0,0,0,20099,0,0,145
05:16:51,7B6F5FE0,0,0,51,0,0,145
05:17:07,7B6F61E0,0,0,20074,0,0,145
05:17:39,7B6F65E0,0,0,47,0,0,146
05:17:55,7B6F67E0,0,0,20077,1,0,146
05:18:11,7B6F69E0,0,0,20075,1,0,145
05:18:43,7B6F6DE0,0,0,20079,0,0,144
05:19:15,7B6F71E0,0,0,12588,0,0,143
05:19:47,7B6F75E0,0,0,51,1,0,142
05:20:03,7B6F77E0,0,0,20074,0,0,141
05:20:19,7B6F79E0,0,0,20072,2,0,141
05:20:51,7B6F7DE0,0,0,20075,0,0,141
05:21:07,7B6F7FE0,0,0,20075,1,0,142
05:21:23,7B6F81E0,0,0,20069,1,0,143
05:21:55,7B6F85E0,0,0,55,0,0,143
05:22:11,7B6F87E0,0,0,53,0,0,144
05:22:27,7B6F89E0,0,0,49,0,0,144
05:22:59,7B6F8DE0,0,0,20066,3,0,145
05:23:31,7B6F91E0,0,0,20068,0,0,146
05:24:03,7B6F95E0,0,0,20060,0,0,146
05:24:19,7B6F97E0,0,0,20069,2,0,145
05:24:35,7B6F99E0,0,0,51,0,0,145
05:25:07,7B6F9DE0,0,0,20056,2,0,143
05:25:23,7B6F9FE0,0,0,20058,2,0,143
05:25:39,7B6FA1E0,0,0,20062,0,0,142
05:26:11,7B6FA5E0,0,0,20060,1,0,141
05:26:27,7B6FA7E0,0,0,49,0,0,141
05:26:43,7B6FA9E0,0,0,20058,1,0,141
05:27:15,7B6FADE0,0,0,20059,0,0,142
05:27:47,7B6FB1E0,0,0,20058,1,0,143
05:28:19,7B6FB5E0,0,0,20057,0,0,144
05:28:35,7B6FB7E0,0,0,50,0,0,144
05:28:51,7B6FB9E0,0,0,20063,0,0,145
05:29:23,7B6FBDE0,0,0,20055,1,0,145
05:29:39,7B6FBFE0,0,0,20058,0,0,146
05:29:55,7B6FC1E0,0,0,20055,0,0,146
05:30:27,7B6FC5E0,0,0,52,0,0,146
05:30:43,7B6FC7E0,0,0,20048,0,0,145
05:30:59,7B6FC9E0,0,0,20045,1,0,144
05:31:31,7B6FCDE0,0,0,20046,2,0,143
05:32:03,7B6FD1E0,0,0,20048,1,0,142
05:32:35,7B6FD5E0,0,0,20050,0,0,141
05:32:51,7B6FD7E0,0,0,20042,3,0,141
05:33:07,7B6FD9E0,0,0,20044,1,0,142
05:33:39,7B6FDDE0,0,0,48,0,0,143
05:33:55,7B6FDFE0,0,0,46,0,0,143
05:34:11,7B6FE1E0,0,0,50,0,0,143
05:34:43,7B6FE5E0,0,0,20036,3,0,144
05:34:59,7B6FE7E0,0,0,20037,2,0,145
05:35:15,7B6FE9E0,0,0,20035,2,0,145
05:35:47,7B6FEDE0,0,0,20036,2,0,146
05:36:19,7B6FF1E0,0,0,20029,3,0,146
05:36:51,7B6FF5E0,0,0,20029,2,0,144
05:37:07,7B6FF7E0,0,0,20028,3,0,144
05:37:23,7B6FF9E0,0,0,20028,2,0,143
05:37:55,7B6FFDE0,0,0,20030,1,0,142
05:38:11,7B6FFFE0,0,0,20028,3,0,142
05:38:27,7B7001E0,0,0,20029,2,0,141
05:38:59,7B7005E0,0,0,20029,2,0,141
05:39:15,7B7007E0,0,0,20032,0,0,141
05:39:31,7B7009E0,0,0,20035,0,0,142
05:40:03,7B700DE0,0,0,20021,3,0,143
05:40:35,7B7011E0,0,0,20023,4,0,144
05:41:07,7B7015E0,0,0,20025,5,0,145
05:41:23,7B7017E0,0,0,20021,5,0,145
05:41:39,7B7019E0,0,0,20025,4,0,145
05:42:11,7B701DE0,0,0,20025,6,1,146
05:42:27,7B701FE0,0,0,20026,5,0,146
05:42:43,7B7021E0,0,0,20026,5,0,146
05:43:15,7B7025E0,0,0,20027,6,0,144
05:43:31,7B7027E0,0,0,20029,5,0,143
05:43:47,7B7029E0,0,0,20030,2,0,143
05:44:19,7B702DE0,0,0,20032,5,0,142
05:44:51,7B7031E0,0,0,20032,6,0,141
05:45:23,7B7035E0,0,0,20031,5,0,142
05:45:39,7B7037E0,0,0,20031,7,0,142
05:45:55,7B7039E0,0,0,20031,4,0,143
05:46:27,7B703DE0,0,0,20032,8,1,143
05:46:43,7B703FE0,0,0,20034,6,0,144
05:46:59,7B7041E0,0,0,20034,6,0,144
05:47:31,7B7045E0,0,0,20036,5,0,145
05:47:47,7B7047E0,0,0,20035,14,0,145
05:48:03,7B7049E0,0,0,20035,9,0,146
05:48:35,7B704DE0,0,0,20036,5,0,146
05:49:07,7B7051E0,0,0,20037,8,0,144
05:49:39,7B7055E0,0,0,20039,6,0,143
05:49:55,7B7057E0,0,0,20041,6,0,143
05:50:11,7B7059E0,0,0,20041,7,0,142
05:50:43,7B705DE0,0,0,20044,6,0,141
05:50:59,7B705FE0,0,0,20044,9,0,141
05:51:15,7B7061E0,0,0,20045,7,0,141
05:51:47,7B7065E0,0,0,20048,7,0,142
05:52:03,7B7067E0,0,0,20048,17,1,143
05:52:19,7B7069E0,0,0,20048,7,0,143
05:52:51,7B706DE0,0,0,20051,5,0,144
05:53:23,7B7071E0,0,0,20051,5,0,145
05:53:55,7B7075E0,0,0,20051,4,0,145
05:54:11,7B7077E0,0,0,20050,8,0,146
05:54:27,7B7079E0,0,0,20050,7,0,146
05:54:59,7B707DE0,0,0,20050,5,0,145
05:55:15,7B707FE0,0,0,20049,7,0,144
05:55:31,7B7081E0,0,0,20050,4,0,144
05:56:03,7B7085E0,0,0,20049,7,0,142
05:56:19,7B7087E0,0,0,20049,6,0,142